Regional Weather Roundup
Issued by NWS Green Bay, WI

Home | Current Version | Previous Version | Text Only | Print | Product List | Glossary On
Versions: 1 2 3 4 5 6 7 8 9 10 11 12 13 14 15 16 17 18 19 20 21 22 23 24 25 26 27 28 29 30 31 32 33 34 35 36 37 38 39 40 41 42 43 44 45 46 47 48 49 50
000
ASUS43 KGRB 260110
RWRGRB

NORTH-CENTRAL AND NORTHEAST WISCONSIN REGIONAL WEATHER ROUNDUP
NATIONAL WEATHER SERVICE GREEN BAY WI
800 PM CDT SAT APR 25 2015

WIZ005-009-010>012-018-019-260200-
NORTH CENTRAL WISCONSIN

CITY           SKY/WX    TMP DP  RH WIND       PRES   REMARKS
IRONWOOD       CLEAR     39  23  52 N5        29.96R
MANITOWISH WTR CLEAR     44  22  40 N7        29.94R
ARBOR VITAE    CLEAR     49  19  30 NE9       29.92R
EAGLE RIVER    CLEAR     45  18  33 N10       29.92R
LAND O LAKES   CLEAR     44  19  37 N8        29.95R
RHINELANDER    CLEAR     49  13  23 NE8       29.91R
PHILLIPS       CLEAR     48  25  40 N7G16     29.90R
ANTIGO         CLEAR     44  24  46 SE6       29.90R
TOMAHAWK       CLEAR     49  16  26 CALM      29.89S
MERRILL        CLEAR     51  15  24 E5        29.89R
$$

WIZ013-073-260200-
NORTHEAST WISCONSIN

CITY           SKY/WX    TMP DP  RH WIND       PRES   REMARKS
IRON MOUNTAIN  CLEAR     44  18  35 NE10      29.93R
MARINETTE      CLEAR     43  19  39 NE9       29.92S
OCONTO         CLEAR     44  22  43 NE3       29.92R
$$

WIZ017-030-035>037-045-260200-
CENTRAL WISCONSIN

CITY           SKY/WX    TMP DP  RH WIND       PRES   REMARKS
MEDFORD        CLEAR     49  21  33 NE5       29.88R
WAUSAU         CLEAR     49  17  28 SE10      29.88R
MOSINEE        CLEAR     46  18  31 E7        29.90R
MARSHFIELD     CLEAR     52  21  29 E3        29.88R
WISC RAPIDS    PTCLDY    48  14  25 E8        29.91R
STEVENS POINT  PTCLDY    45  18  33 SE6       29.90R
WAUPACA        PTCLDY    47   9  20 NE3       29.91R
SHAWANO        CLEAR     45  17  33 E6        29.92R
CLINTONVILLE   PTCLDY    45  14  29 E8        29.90R
$$

WIZ038-039-048-051-260200-
FOX VALLEY

CITY           SKY/WX    TMP DP  RH WIND       PRES   REMARKS
NWS GREEN BAY  PTCLDY    44  18  35 NE10      29.91R
APPLETON       PTCLDY    45   7  21 NE8       29.90R
OSHKOSH        PTCLDY    45  19  35 NE12      29.89R
FOND DU LAC    PTCLDY    45  26  47 N12       29.88R
$$

WIZ022-050-052-260200-
EAST CENTRAL WISCONSIN

CITY           SKY/WX    TMP DP  RH WIND       PRES   REMARKS
STURGEON BAY   PTCLDY    45  16  31 NE9       29.93S
MANITOWOC      PTCLDY    42  23  46 N9        29.90R
SHEBOYGAN      PTCLDY    42  20  41 N13       29.88R
$$

LMZ563-521-522-541>543-260200-
LAKESHORE

STATION/POSITION TIME  TEMP    WIND        PRES    VSBY  WAVE
                       AIR SEA DIR/SP/G                  HT/PER
                 (UTC) (F)     (DEG/KT/KT) (MB)    (MI)  (FT/S)
SHEBOYGAN LKSHOR 0100   41      10/ 20/ 22 1012.5R
KEWAUNEE LKSHORE 0100   42      30/ 10/ 14 1011.9R
TWO RIVERS CG    0000   42                 1012.4      6   3
NORTHPORT PIER   0100   45      40/  8/  9 1013.5S
SISTER BAY LKSHO 0100   46      40/  4/  9   N/A
STURGEON BAY CG  0100   42      50/  7     1015.1      6   2
CHAMBERS ISLAND  0100   41      20/ 10/ 11 1013.9R
MENOMINEE LKSHOR 0100   42      10/ 13/ 15 1013.6F
$$


USA.gov is the U.S. government's official web portal to all federal, state and local government web resources and services.